Year,Month,Day,Hour,Minute,Value (Times are PST for temperature in C)
2009,10,30,00,00,7.00
2009,10,30,00,01,7.00
2009,10,30,00,02,7.00
2009,10,30,00,03,7.00
2009,10,30,00,04,7.00
2009,10,30,00,05,7.00
2009,10,30,00,06,7.00
2009,10,30,00,07,7.00
2009,10,30,00,08,7.00
2009,10,30,00,09,7.00
2009,10,30,00,10,7.00
2009,10,30,00,11,7.00
2009,10,30,00,12,7.00
2009,10,30,00,13,7.00
2009,10,30,00,14,7.00
2009,10,30,00,15,7.00
2009,10,30,00,16,7.00
2009,10,30,00,17,7.00
2009,10,30,00,18,7.00
2009,10,30,00,19,7.00
2009,10,30,00,20,7.00
2009,10,30,00,21,7.00
2009,10,30,00,22,7.00
2009,10,30,00,23,7.00
2009,10,30,00,24,7.00
2009,10,30,00,25,6.90
2009,10,30,00,26,6.90
2009,10,30,00,27,6.90
2009,10,30,00,28,6.90
2009,10,30,00,29,6.90
2009,10,30,00,30,6.90
2009,10,30,00,31,6.90
2009,10,30,00,32,6.90
2009,10,30,00,33,6.90
2009,10,30,00,34,6.90
2009,10,30,00,35,6.90
2009,10,30,00,36,7.00
2009,10,30,00,37,7.00
2009,10,30,00,38,7.00
2009,10,30,00,39,7.00
2009,10,30,00,40,7.00
2009,10,30,00,41,7.00
2009,10,30,00,42,7.10
2009,10,30,00,43,7.10
2009,10,30,00,44,7.10
2009,10,30,00,45,7.10
2009,10,30,00,46,7.10
2009,10,30,00,47,7.10
2009,10,30,00,48,7.10
2009,10,30,00,49,7.20
2009,10,30,00,50,7.20
2009,10,30,00,51,7.20
2009,10,30,00,52,7.20
2009,10,30,00,53,7.20
2009,10,30,00,54,7.20
2009,10,30,00,55,7.20
2009,10,30,00,56,7.20
2009,10,30,00,57,7.20
2009,10,30,00,58,7.20
2009,10,30,00,59,7.20
2009,10,30,01,00,7.20
2009,10,30,01,01,7.30
2009,10,30,01,02,7.30
2009,10,30,01,03,7.30
2009,10,30,01,04,7.40
2009,10,30,01,05,7.40
2009,10,30,01,06,7.40
2009,10,30,01,07,7.40
2009,10,30,01,08,7.50
2009,10,30,01,09,7.50
2009,10,30,01,10,7.50
2009,10,30,01,11,7.60
2009,10,30,01,12,7.60
2009,10,30,01,13,7.60
2009,10,30,01,14,7.70
2009,10,30,01,15,7.70
2009,10,30,01,16,7.80
2009,10,30,01,17,7.80
2009,10,30,01,18,7.80
2009,10,30,01,19,7.90
2009,10,30,01,20,7.90
2009,10,30,01,21,7.90
2009,10,30,01,22,8.00
2009,10,30,01,23,8.00
2009,10,30,01,24,8.00
2009,10,30,01,25,8.10
2009,10,30,01,26,8.10
2009,10,30,01,27,8.10
2009,10,30,01,28,8.10
2009,10,30,01,29,8.20
2009,10,30,01,30,8.30
2009,10,30,01,31,8.50
2009,10,30,01,32,8.60
2009,10,30,01,33,8.70
2009,10,30,01,34,8.80
2009,10,30,01,35,8.80
2009,10,30,01,36,8.90
2009,10,30,01,37,8.90
2009,10,30,01,38,8.90
2009,10,30,01,39,8.90
2009,10,30,01,40,8.80
2009,10,30,01,41,8.80
2009,10,30,01,42,8.80
2009,10,30,01,43,8.80
2009,10,30,01,44,8.80
2009,10,30,01,45,8.70
2009,10,30,01,46,8.70
2009,10,30,01,47,8.70
2009,10,30,01,48,8.70
2009,10,30,01,49,8.70
2009,10,30,01,50,8.70
2009,10,30,01,51,8.70
2009,10,30,01,52,8.70
2009,10,30,01,53,8.70
2009,10,30,01,54,8.70
2009,10,30,01,55,8.70
2009,10,30,01,56,8.70
2009,10,30,01,57,8.70
2009,10,30,01,58,8.70
2009,10,30,01,59,8.70
2009,10,30,02,00,8.70
2009,10,30,02,01,8.70
2009,10,30,02,02,8.70
2009,10,30,02,03,8.70
2009,10,30,02,04,8.70
2009,10,30,02,05,8.70
2009,10,30,02,06,8.70
2009,10,30,02,07,8.70
2009,10,30,02,08,8.70
2009,10,30,02,09,8.70
2009,10,30,02,10,8.70
2009,10,30,02,11,8.70
2009,10,30,02,12,8.70
2009,10,30,02,13,8.80
2009,10,30,02,14,8.80
2009,10,30,02,15,8.80
2009,10,30,02,16,8.80
2009,10,30,02,17,8.80
2009,10,30,02,18,8.80
2009,10,30,02,19,8.90
2009,10,30,02,20,8.90
2009,10,30,02,21,9.00
2009,10,30,02,22,9.00
2009,10,30,02,23,9.10
2009,10,30,02,24,9.10
2009,10,30,02,25,9.10
2009,10,30,02,26,9.10
2009,10,30,02,27,9.10
2009,10,30,02,28,9.10
2009,10,30,02,29,9.10
2009,10,30,02,30,9.10
2009,10,30,02,31,9.10
2009,10,30,02,32,9.10
2009,10,30,02,33,9.10
2009,10,30,02,34,9.10
2009,10,30,02,35,9.10
2009,10,30,02,36,9.20
2009,10,30,02,37,9.20
2009,10,30,02,38,9.20
2009,10,30,02,39,9.20
2009,10,30,02,40,9.20
2009,10,30,02,41,9.30
2009,10,30,02,42,9.30
2009,10,30,02,43,9.30
2009,10,30,02,44,9.40
2009,10,30,02,45,9.40
2009,10,30,02,46,9.40
2009,10,30,02,47,9.50
2009,10,30,02,48,9.50
2009,10,30,02,49,9.50
2009,10,30,02,50,9.60
2009,10,30,02,51,9.60
2009,10,30,02,52,9.60
2009,10,30,02,53,9.60
2009,10,30,02,54,9.60
2009,10,30,02,55,9.70
2009,10,30,02,56,9.70
2009,10,30,02,57,9.70
2009,10,30,02,58,9.70
2009,10,30,02,59,9.70
2009,10,30,03,00,9.70
2009,10,30,03,01,9.70
2009,10,30,03,02,9.70
2009,10,30,03,03,9.70
2009,10,30,03,04,9.80
2009,10,30,03,05,9.80
2009,10,30,03,06,9.80
2009,10,30,03,07,9.80
2009,10,30,03,08,9.80
2009,10,30,03,09,9.90
2009,10,30,03,10,9.90
2009,10,30,03,11,9.90
2009,10,30,03,12,9.90
2009,10,30,03,13,10.00
2009,10,30,03,14,10.00
2009,10,30,03,15,10.10
2009,10,30,03,16,10.10
2009,10,30,03,17,10.20
2009,10,30,03,18,10.20
2009,10,30,03,19,10.20
2009,10,30,03,20,10.30
2009,10,30,03,21,10.30
2009,10,30,03,22,10.50
2009,10,30,03,23,10.50
2009,10,30,03,24,10.70
2009,10,30,03,25,10.70
2009,10,30,03,26,10.80
2009,10,30,03,27,10.80
2009,10,30,03,28,10.90
2009,10,30,03,29,11.00
2009,10,30,03,30,11.00
2009,10,30,03,31,11.10
2009,10,30,03,32,11.20
2009,10,30,03,33,11.20
2009,10,30,03,34,11.20
2009,10,30,03,35,11.20
2009,10,30,03,36,11.20
2009,10,30,03,37,11.20
2009,10,30,03,38,11.20
2009,10,30,03,39,11.20
2009,10,30,03,40,11.20
2009,10,30,03,41,11.20
2009,10,30,03,42,11.20
2009,10,30,03,43,11.20
2009,10,30,03,44,11.20
2009,10,30,03,45,11.20
2009,10,30,03,46,11.20
2009,10,30,03,47,11.20
2009,10,30,03,48,11.20
2009,10,30,03,49,11.20
2009,10,30,03,50,11.20
2009,10,30,03,51,11.20
2009,10,30,03,52,11.20
2009,10,30,03,53,11.20
2009,10,30,03,54,11.20
2009,10,30,03,55,11.20
2009,10,30,03,56,11.20
2009,10,30,03,57,11.20
2009,10,30,03,58,11.20
2009,10,30,03,59,11.20
2009,10,30,04,00,11.20
2009,10,30,04,01,11.20
2009,10,30,04,02,11.20
2009,10,30,04,03,11.20
2009,10,30,04,04,11.20
2009,10,30,04,05,11.20
2009,10,30,04,06,11.20
2009,10,30,04,07,11.20
2009,10,30,04,08,11.20
2009,10,30,04,09,11.10
2009,10,30,04,10,11.10
2009,10,30,04,11,11.10
2009,10,30,04,12,11.10
2009,10,30,04,13,11.10
2009,10,30,04,14,11.10
2009,10,30,04,15,11.10
2009,10,30,04,16,11.10
2009,10,30,04,17,11.10
2009,10,30,04,18,11.10
2009,10,30,04,19,11.10
2009,10,30,04,20,11.10
2009,10,30,04,21,11.10
2009,10,30,04,22,11.10
2009,10,30,04,23,11.10
2009,10,30,04,24,11.10
2009,10,30,04,25,11.10
2009,10,30,04,26,11.10
2009,10,30,04,27,11.10
2009,10,30,04,28,11.10
2009,10,30,04,29,11.10
2009,10,30,04,30,11.20
2009,10,30,04,31,11.20
2009,10,30,04,32,11.20
2009,10,30,04,33,11.20
2009,10,30,04,34,11.20
2009,10,30,04,35,11.20
2009,10,30,04,36,11.20
2009,10,30,04,37,11.20
2009,10,30,04,38,11.20
2009,10,30,04,39,11.30
2009,10,30,04,40,11.30
2009,10,30,04,41,11.30
2009,10,30,04,42,11.30
2009,10,30,04,43,11.20
2009,10,30,04,44,11.20
2009,10,30,04,45,11.20
2009,10,30,04,46,11.30
2009,10,30,04,47,11.30
2009,10,30,04,48,11.40
2009,10,30,04,49,11.40
2009,10,30,04,50,11.50
2009,10,30,04,51,11.50
2009,10,30,04,52,11.50
2009,10,30,04,53,11.60
2009,10,30,04,54,11.50
2009,10,30,04,55,11.50
2009,10,30,04,56,11.60
2009,10,30,04,57,11.60
2009,10,30,04,58,11.50
2009,10,30,04,59,11.50
2009,10,30,05,00,11.50
2009,10,30,05,01,11.50
2009,10,30,05,02,11.40
2009,10,30,05,03,11.40
2009,10,30,05,04,11.40
2009,10,30,05,05,11.40
2009,10,30,05,06,11.40
2009,10,30,05,07,11.50
2009,10,30,05,08,11.50
2009,10,30,05,09,11.50
2009,10,30,05,10,11.50
2009,10,30,05,11,11.50
2009,10,30,05,12,11.50
2009,10,30,05,13,11.50
2009,10,30,05,14,11.50
2009,10,30,05,15,11.40
2009,10,30,05,16,11.40
2009,10,30,05,17,11.40
2009,10,30,05,18,11.40
2009,10,30,05,19,11.40
2009,10,30,05,20,11.40
2009,10,30,05,21,11.40
2009,10,30,05,22,11.40
2009,10,30,05,23,11.40
2009,10,30,05,24,11.40
2009,10,30,05,25,11.40
2009,10,30,05,26,11.40
2009,10,30,05,27,11.40
2009,10,30,05,28,11.40
2009,10,30,05,29,11.40
2009,10,30,05,30,11.40
2009,10,30,05,31,11.40
2009,10,30,05,32,11.40
2009,10,30,05,33,11.40
2009,10,30,05,34,11.40
2009,10,30,05,35,11.40
2009,10,30,05,36,11.40
2009,10,30,05,37,11.40
2009,10,30,05,38,11.40
2009,10,30,05,39,11.40
2009,10,30,05,40,11.40
2009,10,30,05,41,11.30
2009,10,30,05,42,11.30
2009,10,30,05,43,11.40
2009,10,30,05,44,11.40
2009,10,30,05,45,11.40
2009,10,30,05,46,11.40
2009,10,30,05,47,11.40
2009,10,30,05,48,11.40
2009,10,30,05,49,11.40
2009,10,30,05,50,11.40
2009,10,30,05,51,11.40
2009,10,30,05,52,11.30
2009,10,30,05,53,11.30
2009,10,30,05,54,11.30
2009,10,30,05,55,11.30
2009,10,30,05,56,11.40
2009,10,30,05,57,11.40
2009,10,30,05,58,11.40
2009,10,30,05,59,11.40
2009,10,30,06,00,11.40
2009,10,30,06,01,11.40
2009,10,30,06,02,11.40
2009,10,30,06,03,11.40
2009,10,30,06,04,11.50
2009,10,30,06,05,11.50
2009,10,30,06,06,11.50
2009,10,30,06,07,11.50
2009,10,30,06,08,11.50
2009,10,30,06,09,11.50
2009,10,30,06,10,11.50
2009,10,30,06,11,11.50
2009,10,30,06,12,11.50
2009,10,30,06,13,11.60
2009,10,30,06,14,11.60
2009,10,30,06,15,11.60
2009,10,30,06,16,11.60
2009,10,30,06,17,11.60
2009,10,30,06,18,11.60
2009,10,30,06,19,11.60
2009,10,30,06,20,11.60
2009,10,30,06,21,11.60
2009,10,30,06,22,11.60
2009,10,30,06,23,11.60
2009,10,30,06,24,11.60
2009,10,30,06,25,11.60
2009,10,30,06,26,11.60
2009,10,30,06,27,11.60
2009,10,30,06,28,11.60
2009,10,30,06,29,11.60
2009,10,30,06,30,11.60
2009,10,30,06,31,11.70
2009,10,30,06,32,11.70
2009,10,30,06,33,11.70
2009,10,30,06,34,11.70
2009,10,30,06,35,11.70
2009,10,30,06,36,11.70
2009,10,30,06,37,11.70
2009,10,30,06,38,11.70
2009,10,30,06,39,11.60
2009,10,30,06,40,11.60
2009,10,30,06,41,11.60
2009,10,30,06,42,11.60
2009,10,30,06,43,11.60
2009,10,30,06,44,11.60
2009,10,30,06,45,11.60
2009,10,30,06,46,11.60
2009,10,30,06,47,11.60
2009,10,30,06,48,11.70
2009,10,30,06,49,11.70
2009,10,30,06,50,11.60
2009,10,30,06,51,11.70
2009,10,30,06,52,11.70
2009,10,30,06,53,11.70
2009,10,30,06,54,11.70
2009,10,30,06,55,11.70
2009,10,30,06,56,11.80
2009,10,30,06,57,11.70
2009,10,30,06,58,11.70
2009,10,30,06,59,11.70
2009,10,30,07,00,11.70
2009,10,30,07,01,11.70
2009,10,30,07,02,11.70
2009,10,30,07,03,11.70
2009,10,30,07,04,11.70
2009,10,30,07,05,11.70
2009,10,30,07,06,11.70
2009,10,30,07,07,11.70
2009,10,30,07,08,11.70
2009,10,30,07,09,11.70
2009,10,30,07,10,11.70
2009,10,30,07,11,11.70
2009,10,30,07,12,11.70
2009,10,30,07,13,11.70
2009,10,30,07,14,11.70
2009,10,30,07,15,11.80
2009,10,30,07,16,11.80
2009,10,30,07,17,11.80
2009,10,30,07,18,11.90
2009,10,30,07,19,11.90
2009,10,30,07,20,11.90
2009,10,30,07,21,11.90
2009,10,30,07,22,12.00
2009,10,30,07,23,11.90
2009,10,30,07,24,12.00
2009,10,30,07,25,12.00
2009,10,30,07,26,12.00
2009,10,30,07,27,12.10
2009,10,30,07,28,12.10
2009,10,30,07,29,12.10
2009,10,30,07,30,12.10
2009,10,30,07,31,12.10
2009,10,30,07,32,12.10
2009,10,30,07,33,12.10
2009,10,30,07,34,12.10
2009,10,30,07,35,12.10
2009,10,30,07,36,12.10
2009,10,30,07,37,12.10
2009,10,30,07,38,12.10
2009,10,30,07,39,12.10
2009,10,30,07,40,12.10
2009,10,30,07,41,12.10
2009,10,30,07,42,12.00
2009,10,30,07,43,12.00
2009,10,30,07,44,12.10
2009,10,30,07,45,12.10
2009,10,30,07,46,12.10
2009,10,30,07,47,12.10
2009,10,30,07,48,12.10
2009,10,30,07,49,12.10
2009,10,30,07,50,12.10
2009,10,30,07,51,12.10
2009,10,30,07,52,12.10
2009,10,30,07,53,12.10
2009,10,30,07,54,12.10
2009,10,30,07,55,12.10
2009,10,30,07,56,12.10
2009,10,30,07,57,12.10
2009,10,30,07,58,12.10
2009,10,30,07,59,12.10
2009,10,30,08,00,12.10
2009,10,30,08,01,12.00
2009,10,30,08,02,12.00
2009,10,30,08,03,11.90
2009,10,30,08,04,11.90
2009,10,30,08,05,11.90
2009,10,30,08,06,11.90
2009,10,30,08,07,11.90
2009,10,30,08,08,11.90
2009,10,30,08,09,11.90
2009,10,30,08,10,11.90
2009,10,30,08,11,11.90
2009,10,30,08,12,11.90
2009,10,30,08,13,11.90
2009,10,30,08,14,11.90
2009,10,30,08,15,11.90
2009,10,30,08,16,11.80
2009,10,30,08,17,11.80
2009,10,30,08,18,11.80
2009,10,30,08,19,11.80
2009,10,30,08,20,11.80
2009,10,30,08,21,11.80
2009,10,30,08,22,11.80
2009,10,30,08,23,11.80
2009,10,30,08,24,11.80
2009,10,30,08,25,11.80
2009,10,30,08,26,11.80
2009,10,30,08,27,11.80
2009,10,30,08,28,11.80
2009,10,30,08,29,11.80
2009,10,30,08,30,11.80
2009,10,30,08,31,11.90
2009,10,30,08,32,11.90
2009,10,30,08,33,11.90
2009,10,30,08,34,11.90
2009,10,30,08,35,12.00
2009,10,30,08,36,12.10
2009,10,30,08,37,12.20
2009,10,30,08,38,12.20
2009,10,30,08,39,12.30
2009,10,30,08,40,12.30
2009,10,30,08,41,12.30
2009,10,30,08,42,12.40
2009,10,30,08,43,12.40
2009,10,30,08,44,12.50
2009,10,30,08,45,12.60
2009,10,30,08,46,12.60
2009,10,30,08,47,12.70
2009,10,30,08,48,12.70
2009,10,30,08,49,12.70
2009,10,30,08,50,12.70
2009,10,30,08,51,12.70
2009,10,30,08,52,12.80
2009,10,30,08,53,12.90
2009,10,30,08,54,12.90
2009,10,30,08,55,13.00
2009,10,30,08,56,13.00
2009,10,30,08,57,13.00
2009,10,30,08,58,13.10
2009,10,30,08,59,13.20
2009,10,30,09,00,13.30
2009,10,30,09,01,13.40
2009,10,30,09,02,13.50
2009,10,30,09,03,13.60
2009,10,30,09,04,13.70
2009,10,30,09,05,13.70
2009,10,30,09,06,13.70
2009,10,30,09,07,13.70
2009,10,30,09,08,13.70
2009,10,30,09,09,13.60
2009,10,30,09,10,13.60
2009,10,30,09,11,13.60
2009,10,30,09,12,13.60
2009,10,30,09,13,13.60
2009,10,30,09,14,13.50
2009,10,30,09,15,13.50
2009,10,30,09,16,13.40
2009,10,30,09,17,13.40
2009,10,30,09,18,13.40
2009,10,30,09,19,13.40
2009,10,30,09,20,13.40
2009,10,30,09,21,13.50
2009,10,30,09,22,13.50
2009,10,30,09,23,13.60
2009,10,30,09,24,13.60
2009,10,30,09,25,13.60
2009,10,30,09,26,13.60
2009,10,30,09,27,13.60
2009,10,30,09,28,13.60
2009,10,30,09,29,13.60
2009,10,30,09,30,13.50
2009,10,30,09,31,13.50
2009,10,30,09,32,13.40
2009,10,30,09,33,13.30
2009,10,30,09,34,13.30
2009,10,30,09,35,13.30
2009,10,30,09,36,13.30
2009,10,30,09,37,13.30
2009,10,30,09,38,13.30
2009,10,30,09,39,13.30
2009,10,30,09,40,13.30
2009,10,30,09,41,13.30
2009,10,30,09,42,13.30
2009,10,30,09,43,13.30
2009,10,30,09,44,13.30
2009,10,30,09,45,13.30
2009,10,30,09,46,13.30
2009,10,30,09,47,13.30
2009,10,30,09,48,13.30
2009,10,30,09,49,13.30
2009,10,30,09,50,13.30
2009,10,30,09,51,13.30
2009,10,30,09,52,13.30
2009,10,30,09,53,13.30
2009,10,30,09,54,13.30
2009,10,30,09,55,13.30
2009,10,30,09,56,13.30
2009,10,30,09,57,13.30
2009,10,30,09,58,13.30
2009,10,30,09,59,13.30
2009,10,30,10,00,13.30
2009,10,30,10,01,13.30
2009,10,30,10,02,13.30
2009,10,30,10,03,13.30
2009,10,30,10,04,13.30
2009,10,30,10,05,13.40
2009,10,30,10,06,13.30
2009,10,30,10,07,13.40
2009,10,30,10,08,13.40
2009,10,30,10,09,13.40
2009,10,30,10,10,13.40
2009,10,30,10,11,13.40
2009,10,30,10,12,13.40
2009,10,30,10,13,13.40
2009,10,30,10,14,13.40
2009,10,30,10,15,13.40
2009,10,30,10,16,13.40
2009,10,30,10,17,13.40
2009,10,30,10,18,13.40
2009,10,30,10,19,13.40
2009,10,30,10,20,13.40
2009,10,30,10,21,13.40
2009,10,30,10,22,13.40
2009,10,30,10,23,13.40
2009,10,30,10,24,13.40
2009,10,30,10,25,13.40
2009,10,30,10,26,13.40
2009,10,30,10,27,13.40
2009,10,30,10,28,13.40
2009,10,30,10,29,13.40
2009,10,30,10,30,13.40
2009,10,30,10,31,13.50
2009,10,30,10,32,13.50
2009,10,30,10,33,13.50
2009,10,30,10,34,13.40
2009,10,30,10,35,13.40
2009,10,30,10,36,13.40
2009,10,30,10,37,13.40
2009,10,30,10,38,13.40
2009,10,30,10,39,13.40
2009,10,30,10,40,13.40
2009,10,30,10,41,13.40
2009,10,30,10,42,13.40
2009,10,30,10,43,13.30
2009,10,30,10,44,13.30
2009,10,30,10,45,13.30
2009,10,30,10,46,13.30
2009,10,30,10,47,13.30
2009,10,30,10,48,13.30
2009,10,30,10,49,13.30
2009,10,30,10,50,13.30
2009,10,30,10,51,13.30
2009,10,30,10,52,13.30
2009,10,30,10,53,13.30
2009,10,30,10,54,13.20
2009,10,30,10,55,13.20
2009,10,30,10,56,13.20
2009,10,30,10,57,13.20
2009,10,30,10,58,13.20
2009,10,30,10,59,13.20
2009,10,30,11,00,13.20
2009,10,30,11,01,13.20
2009,10,30,11,02,13.20
2009,10,30,11,03,13.10
2009,10,30,11,04,13.10
2009,10,30,11,05,13.10
2009,10,30,11,06,13.10
2009,10,30,11,07,13.10
2009,10,30,11,08,13.00
2009,10,30,11,09,13.00
2009,10,30,11,10,12.90
2009,10,30,11,11,12.90
2009,10,30,11,12,12.90
2009,10,30,11,13,12.90
2009,10,30,11,14,12.80
2009,10,30,11,15,12.80
2009,10,30,11,16,12.80
2009,10,30,11,17,12.80
2009,10,30,11,18,12.80
2009,10,30,11,19,12.80
2009,10,30,11,20,12.80
2009,10,30,11,21,12.80
2009,10,30,11,22,12.80
2009,10,30,11,23,12.80
2009,10,30,11,24,12.80
2009,10,30,11,25,12.80
2009,10,30,11,26,12.90
2009,10,30,11,27,12.90
2009,10,30,11,28,12.90
2009,10,30,11,29,12.90
2009,10,30,11,30,12.90
2009,10,30,11,31,13.00
2009,10,30,11,32,12.90
2009,10,30,11,33,12.90
2009,10,30,11,34,13.00
2009,10,30,11,35,13.00
2009,10,30,11,36,13.00
2009,10,30,11,37,13.10
2009,10,30,11,38,13.10
2009,10,30,11,39,13.10
2009,10,30,11,40,13.10
2009,10,30,11,41,13.10
2009,10,30,11,42,13.20
2009,10,30,11,43,13.20
2009,10,30,11,44,13.20
2009,10,30,11,45,13.20
2009,10,30,11,46,13.30
2009,10,30,11,47,13.30
2009,10,30,11,48,13.30
2009,10,30,11,49,13.30
2009,10,30,11,50,13.30
2009,10,30,11,51,13.30
2009,10,30,11,52,13.30
2009,10,30,11,53,13.30
2009,10,30,11,54,13.30
2009,10,30,11,55,13.30
2009,10,30,11,56,13.30
2009,10,30,11,57,13.30
2009,10,30,11,58,13.30
2009,10,30,11,59,13.40
2009,10,30,12,00,13.40
2009,10,30,12,01,13.40
2009,10,30,12,02,13.40
2009,10,30,12,03,13.40
2009,10,30,12,04,13.40
2009,10,30,12,05,13.40
2009,10,30,12,06,13.40
2009,10,30,12,07,13.40
2009,10,30,12,08,13.50
2009,10,30,12,09,13.50
2009,10,30,12,10,13.60
2009,10,30,12,11,13.60
2009,10,30,12,12,13.60
2009,10,30,12,13,13.60
2009,10,30,12,14,13.70
2009,10,30,12,15,13.70
2009,10,30,12,16,13.70
2009,10,30,12,17,13.70
2009,10,30,12,18,13.80
2009,10,30,12,19,13.80
2009,10,30,12,20,13.80
2009,10,30,12,21,13.80
2009,10,30,12,22,13.80
2009,10,30,12,23,13.80
2009,10,30,12,24,13.80
2009,10,30,12,25,13.80
2009,10,30,12,26,13.80
2009,10,30,12,27,13.80
2009,10,30,12,28,13.80
2009,10,30,12,29,13.80
2009,10,30,12,30,13.80
2009,10,30,12,31,13.70
2009,10,30,12,32,13.70
2009,10,30,12,33,13.70
2009,10,30,12,34,13.70
2009,10,30,12,35,13.70
2009,10,30,12,36,13.70
2009,10,30,12,37,13.70
2009,10,30,12,38,13.70
2009,10,30,12,39,13.70
2009,10,30,12,40,13.70
2009,10,30,12,41,13.70
2009,10,30,12,42,13.70
2009,10,30,12,43,13.70
2009,10,30,12,44,13.80
2009,10,30,12,45,13.80
2009,10,30,12,46,13.80
2009,10,30,12,47,13.80
2009,10,30,12,48,13.80
2009,10,30,12,49,13.80
2009,10,30,12,50,13.80
2009,10,30,12,51,13.80
2009,10,30,12,52,13.90
2009,10,30,12,53,13.90
2009,10,30,12,54,13.90
2009,10,30,12,55,13.90
2009,10,30,12,56,13.90
2009,10,30,12,57,13.90
2009,10,30,12,58,13.90
2009,10,30,12,59,13.90
2009,10,30,13,00,13.90
2009,10,30,13,01,13.90
2009,10,30,13,02,13.90
2009,10,30,13,03,13.90
2009,10,30,13,04,13.90
2009,10,30,13,05,13.90
2009,10,30,13,06,13.90
2009,10,30,13,07,13.90
2009,10,30,13,08,13.90
2009,10,30,13,09,13.80
2009,10,30,13,10,13.80
2009,10,30,13,11,13.80
2009,10,30,13,12,13.80
2009,10,30,13,13,13.70
2009,10,30,13,14,13.70
2009,10,30,13,15,13.70
2009,10,30,13,16,13.70
2009,10,30,13,17,13.70
2009,10,30,13,18,13.70
2009,10,30,13,19,13.70
2009,10,30,13,20,13.70
2009,10,30,13,21,13.70
2009,10,30,13,22,13.70
2009,10,30,13,23,13.70
2009,10,30,13,24,13.70
2009,10,30,13,25,13.70
2009,10,30,13,26,13.70
2009,10,30,13,27,13.70
2009,10,30,13,28,13.70
2009,10,30,13,29,13.70
2009,10,30,13,30,13.80
2009,10,30,13,31,13.80
2009,10,30,13,32,13.80
2009,10,30,13,33,13.80
2009,10,30,13,34,13.90
2009,10,30,13,35,13.90
2009,10,30,13,36,13.90
2009,10,30,13,37,14.00
2009,10,30,13,38,14.00
2009,10,30,13,39,14.10
2009,10,30,13,40,14.10
2009,10,30,13,41,14.10
2009,10,30,13,42,14.20
2009,10,30,13,43,14.20
2009,10,30,13,44,14.20
2009,10,30,13,45,14.20
2009,10,30,13,46,14.20
2009,10,30,13,47,14.30
2009,10,30,13,48,14.30
2009,10,30,13,49,14.30
2009,10,30,13,50,14.30
2009,10,30,13,51,14.30
2009,10,30,13,52,14.30
2009,10,30,13,53,14.30
2009,10,30,13,54,14.30
2009,10,30,13,55,14.30
2009,10,30,13,56,14.40
2009,10,30,13,57,14.40
2009,10,30,13,58,14.40
2009,10,30,13,59,14.40
2009,10,30,14,00,14.40
2009,10,30,14,01,14.40
2009,10,30,14,02,14.40
2009,10,30,14,03,14.40
2009,10,30,14,04,14.40
2009,10,30,14,05,14.40
2009,10,30,14,06,14.40
2009,10,30,14,07,14.40
2009,10,30,14,08,14.40
2009,10,30,14,09,14.40
2009,10,30,14,10,14.40
2009,10,30,14,11,14.40
2009,10,30,14,12,14.40
2009,10,30,14,13,14.40
2009,10,30,14,14,14.40
2009,10,30,14,15,14.40
2009,10,30,14,16,14.40
2009,10,30,14,17,14.40
2009,10,30,14,18,14.40
2009,10,30,14,19,14.40
2009,10,30,14,20,14.40
2009,10,30,14,21,14.30
2009,10,30,14,22,14.40
2009,10,30,14,23,14.40
2009,10,30,14,24,14.40
2009,10,30,14,25,14.40
2009,10,30,14,26,14.40
2009,10,30,14,27,14.40
2009,10,30,14,28,14.30
2009,10,30,14,29,14.30
2009,10,30,14,30,14.40
2009,10,30,14,31,14.30
2009,10,30,14,32,14.30
2009,10,30,14,33,14.30
2009,10,30,14,34,14.30
2009,10,30,14,35,14.30
2009,10,30,14,36,14.40
2009,10,30,14,37,14.40
2009,10,30,14,38,14.40
2009,10,30,14,39,14.40
2009,10,30,14,40,14.40
2009,10,30,14,41,14.40
2009,10,30,14,42,14.40
2009,10,30,14,43,14.40
2009,10,30,14,44,14.40
2009,10,30,14,45,14.40
2009,10,30,14,46,14.40
2009,10,30,14,47,14.40
2009,10,30,14,48,14.40
2009,10,30,14,49,14.50
2009,10,30,14,50,14.50
2009,10,30,14,51,14.50
2009,10,30,14,52,14.50
2009,10,30,14,53,14.50
2009,10,30,14,54,14.50
2009,10,30,14,55,14.50
2009,10,30,14,56,14.50
2009,10,30,14,57,14.60
2009,10,30,14,58,14.60
2009,10,30,14,59,14.50
2009,10,30,15,00,14.60
2009,10,30,15,01,14.60
2009,10,30,15,02,14.60
2009,10,30,15,03,14.60
2009,10,30,15,04,14.60
2009,10,30,15,05,14.60
2009,10,30,15,06,14.60
2009,10,30,15,07,14.60
2009,10,30,15,08,14.60
2009,10,30,15,09,14.70
2009,10,30,15,10,14.70
2009,10,30,15,11,14.70
2009,10,30,15,12,14.70
2009,10,30,15,13,14.70
2009,10,30,15,14,14.80
2009,10,30,15,15,14.80
2009,10,30,15,16,14.80
2009,10,30,15,17,14.90
2009,10,30,15,18,14.90
2009,10,30,15,19,15.00
2009,10,30,15,20,15.00
2009,10,30,15,21,15.00
2009,10,30,15,22,15.00
2009,10,30,15,23,15.00
2009,10,30,15,24,15.10
2009,10,30,15,25,15.20
2009,10,30,15,26,15.20
2009,10,30,15,27,15.30
2009,10,30,15,28,15.30
2009,10,30,15,29,15.30
2009,10,30,15,30,15.20
2009,10,30,15,31,15.20
2009,10,30,15,32,15.10
2009,10,30,15,33,15.10
2009,10,30,15,34,15.00
2009,10,30,15,35,15.00
2009,10,30,15,36,15.00
2009,10,30,15,37,15.00
2009,10,30,15,38,15.00
2009,10,30,15,39,15.00
2009,10,30,15,40,15.00
2009,10,30,15,41,15.00
2009,10,30,15,42,15.00
2009,10,30,15,43,15.00
2009,10,30,15,44,15.00
2009,10,30,15,45,15.00
2009,10,30,15,46,15.00
2009,10,30,15,47,15.00
2009,10,30,15,48,15.00
2009,10,30,15,49,15.00
2009,10,30,15,50,14.90
2009,10,30,15,51,14.90
2009,10,30,15,52,14.80
2009,10,30,15,53,14.80
2009,10,30,15,54,14.80
2009,10,30,15,55,14.80
2009,10,30,15,56,14.80
2009,10,30,15,57,14.70
2009,10,30,15,58,14.70
2009,10,30,15,59,14.70
2009,10,30,16,00,14.70
2009,10,30,16,01,14.70
2009,10,30,16,02,14.80
2009,10,30,16,03,14.80
2009,10,30,16,04,14.80
2009,10,30,16,05,14.80
2009,10,30,16,06,14.90
2009,10,30,16,07,14.90
2009,10,30,16,08,14.90
2009,10,30,16,09,15.00
2009,10,30,16,10,15.00
2009,10,30,16,11,15.00
2009,10,30,16,12,14.90
2009,10,30,16,13,14.90
2009,10,30,16,14,14.90
2009,10,30,16,15,14.80
2009,10,30,16,16,14.80
2009,10,30,16,17,14.80
2009,10,30,16,18,14.80
2009,10,30,16,19,14.80
2009,10,30,16,20,14.80
2009,10,30,16,21,14.80
2009,10,30,16,22,14.80
2009,10,30,16,23,14.80
2009,10,30,16,24,14.90
2009,10,30,16,25,14.90
2009,10,30,16,26,14.90
2009,10,30,16,27,14.90
2009,10,30,16,28,14.90
2009,10,30,16,29,14.90
2009,10,30,16,30,14.90
2009,10,30,16,31,14.90
2009,10,30,16,32,14.90
2009,10,30,16,33,15.00
2009,10,30,16,34,15.00
2009,10,30,16,35,15.00
2009,10,30,16,36,15.00
2009,10,30,16,37,15.00
2009,10,30,16,38,15.00
2009,10,30,16,39,15.00
2009,10,30,16,40,14.90
2009,10,30,16,41,14.70
2009,10,30,16,42,14.60
2009,10,30,16,43,14.50
2009,10,30,16,44,14.40
2009,10,30,16,45,14.30
2009,10,30,16,46,14.20
2009,10,30,16,47,14.10
2009,10,30,16,48,14.00
2009,10,30,16,49,13.90
2009,10,30,16,50,13.90
2009,10,30,16,51,13.80
2009,10,30,16,52,13.80
2009,10,30,16,53,13.70
2009,10,30,16,54,13.70
2009,10,30,16,55,13.70
2009,10,30,16,56,13.70
2009,10,30,16,57,13.70
2009,10,30,16,58,13.70
2009,10,30,16,59,13.70
2009,10,30,17,00,13.70
2009,10,30,17,01,13.70
2009,10,30,17,02,13.70
2009,10,30,17,03,13.70
2009,10,30,17,04,13.70
2009,10,30,17,05,13.70
2009,10,30,17,06,13.70
2009,10,30,17,07,13.70
2009,10,30,17,08,13.60
2009,10,30,17,09,13.60
2009,10,30,17,10,13.60
2009,10,30,17,11,13.60
2009,10,30,17,12,13.60
2009,10,30,17,13,13.60
2009,10,30,17,14,13.60
2009,10,30,17,15,13.60
2009,10,30,17,16,13.60
2009,10,30,17,17,13.60
2009,10,30,17,18,13.60
2009,10,30,17,19,13.50
2009,10,30,17,20,13.50
2009,10,30,17,21,13.40
2009,10,30,17,22,13.40
2009,10,30,17,23,13.40
2009,10,30,17,24,13.40
2009,10,30,17,25,13.40
2009,10,30,17,26,13.40
2009,10,30,17,27,13.40